Location: Newark
(49.8969°N, 3.3422°E)
Time: 01:44:55
(UTC+00:00)

Explorer 7 - Pass Details

Date: 30 January 2020
Orbit: 485 x 679 km, 50.3° (Epoch: 25 February)

Event Time Altitude Azimuth Distance (km) Brightness Sun altitude
Rises 02:15:43 0° 284° (WNW) 2,554 - -48.0°
Reaches altitude 10° 02:18:02 10° 274° (W) 1,678 - -47.7°
Maximum altitude 02:21:22 30° 212° (SSW) 916 - -47.2°
Drops below altitude 10° 02:24:46 10° 150° (SSE) 1,721 - -46.8°
Sets 02:27:11 0° 140° (SE) 2,632 - -46.5°
